Wind_Speed
9 8 14 16 18 16 13 13 27 18 16 14 15 16 13 12 12 12 12 11 12 12 11 11 10 11 10 10 9 8 8 8 9 9 7 6 5 6 8 10 9 10 11
6 6 9 11 17 17 15 16 18 19 16 18 18 16 14 14 13 14 13 12 13 12 12 12 12 11 11 11 11 12 11 9 10 10 9 8 8 9 10 10 9 7 7
6 6 6 5 10 16 17 19 19 19 15 23 19 17 17 17 16 15 14 14 15 15 15 12 12 14 13 12 11 11 13 11 10 10 11 10 10 11 11 11 11 9 8
8 8 7 5 6 10 15 21 20 20 18 24 22 23 19 19 19 17 15 15 15 17 16 13 14 14 16 15 14 12 12 13 13 12 12 12 13 13 14 14 12 12 11
8 8 7 8 10 6 14 16 19 25 24 23 23 27 23 20 20 19 18 19 18 17 16 15 15 15 17 17 17 16 15 15 15 15 15 15 16 16 15 14 13 13 12
10 10 10 9 9 8 8 14 15 21 29 28 23 23 30 25 26 20 21 22 21 21 20 19 17 17 16 17 16 17 17 17 17 18 17 17 15 14 15 15 14 14 14
19 17 15 13 12 10 10 12 13 15 23 26 26 26 26 28 26 27 22 26 24 23 22 21 19 19 18 18 18 18 18 18 18 18 17 16 16 16 17 19 19 19 18
14 17 18 16 14 15 15 13 14 15 17 23 26 31 33 32 27 31 32 26 26 25 23 23 22 21 20 20 21 21 21 19 18 17 18 19 18 19 22 24 22 22 21
17 20 18 18 19 18 17 20 18 19 22 23 23 24 27 35 37 36 37 28 27 25 24 25 24 22 22 22 22 22 23 21 18 18 18 20 20 21 24 22 23 25 26
24 23 22 23 23 23 22 25 22 23 25 22 25 23 24 28 35 29 28 32 34 35 32 28 24 23 24 25 26 24 24 23 21 20 20 21 21 22 22 20 21 22 21
27 28 26 29 28 29 28 28 28 28 27 27 26 27 26 27 28 27 29 33 34 30 34 36 32 28 29 27 28 26 27 26 25 23 23 21 23 22 20 21 20 22 23
34 32 33 33 34 32 33 35 35 34 33 33 30 30 30 29 31 33 33 34 35 34 33 34 38 37 35 34 31 32 31 28 27 26 25 22 23 20 19 19 19 20 19
37 38 39 39 39 38 39 38 38 38 39 39 37 34 33 32 34 33 34 35 37 37 35 33 34 36 37 37 35 36 34 31 30 28 26 24 24 19 19 17 17 18 17
42 43 43 44 44 44 43 42 43 42 43 43 43 42 39 37 37 37 36 36 37 37 38 34 35 35 34 35 37 37 33 33 33 30 28 26 25 20 20 18 19 18 17
43 45 48 49 48 48 48 48 48 46 47 46 45 45 47 43 44 41 40 40 40 37 37 37 35 35 34 36 38 35 31 31 31 31 29 30 25 21 21 20 20 19 18
48 49 48 49 52 53 55 53 53 51 51 50 48 48 49 48 47 44 43 42 41 40 38 36 36 36 36 33 34 35 32 29 30 30 29 28 25 23 21 22 21 18 18
49 49 48 49 50 52 55 57 57 56 55 52 52 52 51 49 49 50 51 47 43 42 38 34 40 39 37 33 32 31 28 28 29 28 27 25 26 23 22 24 19 16 19
47 48 50 51 52 53 51 55 58 56 59 56 54 55 53 50 51 53 52 41 39 51 46 37 41 40 38 37 34 30 28 28 30 28 25 24 26 23 23 24 18 16 17
51 50 54 57 57 59 57 54 58 59 56 58 55 54 53 51 50 48 47 43 42 49 45 44 40 44 41 42 36 33 30 30 31 30 25 25 26 24 24 22 22 23 19
55 56 60 56 55 54 58 55 56 58 58 55 55 54 52 52 50 49 47 46 46 44 44 49 43 43 41 44 40 36 34 36 35 32 27 26 26 26 24 21 25 23 23
60 63 57 50 45 44 49 50 51 56 56 54 53 54 52 52 50 50 48 47 48 48 45 48 50 54 45 46 40 39 38 39 37 32 30 27 27 26 25 23 25 25 23
62 58 50 46 45 51 52 44 49 50 53 51 50 52 53 52 51 50 50 49 51 46 42 47 41 47 49 44 43 41 41 41 38 38 35 32 28 29 30 28 29 28 28
56 48 48 43 44 40 35 33 40 41 44 48 48 49 50 50 51 50 48 50 49 42 45 44 48 50 52 44 46 43 43 42 41 40 38 35 32 31 32 31 32 33 32
50 47 41 32 28 25 23 24 28 33 37 40 43 47 48 48 47 47 46 48 47 47 44 39 39 38 53 49 49 47 44 43 44 42 42 39 36 35 35 35 36 36 34
39 38 32 30 24 19 19 22 22 24 27 30 36 40 39 40 38 41 45 45 46 48 43 44 36 38 45 53 53 49 44 43 43 44 44 42 40 39 38 39 38 36 35
37 37 26 24 17 16 16 18 21 26 25 21 25 32 36 37 39 41 39 39 42 44 46 46 38 42 47 57 56 50 48 46 45 46 45 44 44 44 41 42 42 38 36
Wind_Direction
336 307 279 264 243 234 234 220 205 200 200 206 207 209 216 212 218 220 216 223 226 224 225 232 228 235 239 250 261 276 292 307 314 317 321 328 335 332 335 341 353 8 10
345 329 339 256 244 228 227 230 215 207 221 206 213 214 213 212 212 228 228 225 233 231 232 240 243 245 251 255 262 268 274 284 293 299 304 297 298 305 312 319 326 337 344
329 355 358 339 254 235 229 234 238 235 214 210 216 215 219 218 221 228 236 233 238 237 236 240 248 251 255 260 259 263 272 276 277 286 293 299 302 308 314 317 318 320 322
344 335 332 337 295 236 244 237 237 227 228 214 223 218 225 228 228 231 236 237 237 239 235 239 248 256 257 260 261 255 258 265 274 279 284 287 294 298 300 304 306 307 308
329 333 324 314 307 280 245 250 252 229 227 232 228 222 225 229 234 232 236 237 232 234 235 233 243 251 257 259 257 260 262 267 271 277 282 293 295 296 298 300 303 304 303
309 306 304 308 305 290 262 250 247 247 228 234 236 234 220 237 240 241 238 239 234 233 234 235 234 240 244 249 255 260 264 267 274 281 288 290 294 301 300 298 296 295 297
303 301 300 296 298 292 275 244 253 252 242 239 240 241 238 238 248 244 251 243 237 238 237 238 236 242 249 253 257 258 261 268 273 280 284 289 291 294 294 294 294 292 288
322 316 289 286 292 292 289 266 249 250 250 250 250 247 237 237 240 241 251 250 243 239 241 241 242 247 255 258 260 263 266 268 270 274 281 284 285 291 298 286 282 285 284
289 284 293 290 285 285 284 281 275 258 255 259 258 256 246 239 245 239 245 245 245 244 243 242 242 248 254 258 259 264 268 269 267 270 276 280 293 292 297 296 278 277 277
298 294 288 275 279 282 280 275 274 273 270 262 261 252 252 246 249 250 240 240 248 249 251 248 250 253 261 265 264 264 266 267 268 267 267 279 292 295 295 295 285 285 286
299 298 291 286 280 277 274 273 272 269 268 267 266 261 251 248 243 246 247 245 249 250 248 250 254 261 262 263 263 262 261 265 270 270 272 281 295 292 291 292 289 289 291
297 294 289 286 284 279 273 270 268 268 268 266 262 262 260 252 250 252 249 251 253 254 254 250 252 255 262 260 260 259 259 262 265 268 271 279 288 285 286 288 293 295 298
285 285 285 283 282 279 276 273 269 266 264 264 263 261 262 262 257 252 253 251 251 250 250 251 253 255 259 259 256 257 260 264 265 268 268 273 282 278 278 280 285 285 294
281 282 282 281 280 278 274 272 271 268 264 261 260 261 258 258 261 261 254 252 252 251 253 251 250 254 256 257 252 253 258 263 266 268 267 271 277 273 267 270 273 276 283
282 283 283 282 281 277 274 273 269 267 265 263 260 260 261 259 258 260 258 255 253 250 250 255 253 256 258 258 252 253 254 259 264 271 270 269 268 264 264 269 271 280 290
295 291 286 282 279 276 273 269 267 266 264 263 261 259 257 257 259 261 261 258 258 261 258 258 257 257 258 263 256 251 252 256 266 274 270 265 259 262 263 266 271 286 292
294 291 289 286 280 274 271 269 265 263 262 261 261 259 258 256 258 259 259 254 257 256 258 255 261 259 259 259 259 253 251 251 257 264 265 256 256 259 261 266 273 288 290
294 293 291 289 285 280 272 269 266 260 258 258 256 257 258 258 257 258 256 278 274 260 260 249 256 259 259 258 258 258 249 249 254 256 256 257 258 258 262 266 276 283 293
295 293 293 291 285 278 274 268 261 260 255 253 253 254 255 257 257 261 263 265 262 267 266 249 249 255 254 257 256 258 252 251 250 249 251 254 251 253 259 270 279 282 294
298 297 298 292 286 278 274 268 259 253 254 252 249 251 251 255 256 257 260 263 266 268 262 271 240 243 245 252 251 255 252 249 246 247 248 243 242 250 258 265 275 277 289
300 301 298 293 281 278 282 268 258 251 248 248 247 248 247 250 252 255 259 261 261 264 257 259 265 247 242 245 249 251 248 249 248 247 242 239 242 252 258 261 268 276 285
304 301 294 289 279 285 284 268 253 247 243 244 244 245 247 248 251 254 258 260 263 264 253 257 241 237 239 238 243 247 247 247 246 245 238 240 244 251 257 261 267 275 280
307 300 299 295 293 284 275 263 250 242 242 240 241 244 244 246 248 252 256 258 260 256 247 237 234 243 235 234 240 244 246 243 243 246 245 245 246 252 261 265 269 273 278
306 309 307 313 301 280 273 264 248 239 238 239 237 239 240 244 247 247 248 249 250 250 245 240 248 250 233 237 239 241 245 241 240 241 244 247 246 253 261 268 269 270 277
305 314 319 312 296 270 267 266 257 244 240 241 239 238 236 236 243 244 247 249 247 249 238 229 226 241 232 235 236 240 243 241 237 238 242 245 251 254 259 265 269 272 275
306 319 308 295 284 265 267 261 245 239 236 229 228 224 227 235 240 243 244 245 246 246 231 220 228 232 228 228 232 234 239 241 238 238 241 243 249 253 258 265 268 270 271
Height
5917 5917 5915 5915 5916 5918 5921 5920 5922 5924 5926 5929 5931 5932 5933 5934 5936 5938 5940 5941 5942 5942 5943 5944 5944 5944 5945 5945 5946 5946 5945 5945 5944 5943 5942 5941 5940 5940 5939 5938 5937 5935 5934
5916 5915 5913 5912 5913 5915 5918 5918 5918 5921 5924 5926 5928 5928 5929 5932 5933 5936 5938 5939 5940 5941 5941 5942 5942 5942 5943 5943 5944 5944 5943 5943 5942 5942 5941 5940 5939 5938 5937 5936 5936 5935 5934
5915 5913 5911 5911 5912 5913 5915 5917 5917 5919 5921 5923 5925 5925 5927 5929 5930 5932 5935 5936 5937 5938 5938 5939 5939 5940 5941 5941 5941 5941 5941 5941 5940 5939 5939 5938 5937 5937 5936 5935 5934 5933 5932
5915 5913 5912 5910 5911 5911 5912 5914 5915 5916 5917 5920 5922 5922 5924 5927 5928 5929 5931 5932 5933 5934 5934 5935 5936 5937 5938 5938 5938 5938 5938 5938 5938 5937 5937 5936 5935 5935 5934 5933 5932 5931 5931
5915 5913 5911 5910 5908 5907 5908 5910 5911 5911 5913 5915 5917 5920 5922 5924 5926 5926 5926 5928 5929 5930 5930 5930 5931 5933 5934 5935 5935 5935 5935 5934 5935 5935 5934 5934 5933 5932 5931 5931 5930 5929 5928
5914 5912 5910 5908 5907 5905 5904 5905 5907 5908 5909 5911 5913 5915 5918 5920 5922 5923 5923 5924 5924 5925 5925 5926 5926 5928 5929 5930 5931 5931 5931 5931 5931 5932 5932 5931 5930 5930 5929 5928 5927 5927 5926
5913 5912 5910 5908 5907 5904 5902 5902 5903 5904 5906 5908 5910 5912 5913 5916 5918 5918 5919 5920 5920 5921 5922 5923 5923 5924 5925 5927 5928 5927 5927 5927 5927 5928 5928 5928 5927 5926 5926 5925 5924 5923 5922
5909 5909 5908 5905 5904 5904 5902 5900 5900 5900 5901 5902 5905 5906 5909 5912 5913 5913 5914 5916 5917 5917 5918 5919 5919 5920 5921 5923 5923 5923 5923 5923 5923 5923 5924 5924 5922 5922 5921 5919 5919 5919 5917
5904 5904 5903 5901 5901 5900 5900 5898 5896 5897 5897 5897 5898 5900 5901 5904 5904 5906 5908 5910 5912 5913 5913 5914 5914 5915 5917 5918 5919 5919 5919 5919 5919 5919 5920 5919 5918 5917 5915 5914 5913 5912 5911
5899 5898 5897 5896 5896 5895 5895 5893 5892 5892 5893 5893 5892 5894 5894 5895 5897 5900 5901 5903 5905 5906 5907 5908 5909 5911 5912 5913 5914 5914 5914 5915 5914 5914 5914 5914 5914 5912 5910 5909 5908 5906 5905
5893 5891 5890 5889 5890 5888 5888 5887 5886 5886 5885 5886 5886 5887 5889 5890 5891 5893 5894 5895 5897 5897 5899 5900 5903 5905 5906 5907 5908 5909 5908 5909 5910 5910 5910 5910 5909 5907 5906 5905 5903 5902 5900
5885 5884 5882 5881 5881 5880 5880 5879 5878 5877 5878 5879 5879 5879 5881 5883 5884 5885 5886 5886 5889 5890 5892 5893 5895 5897 5898 5900 5901 5901 5902 5903 5904 5905 5905 5905 5904 5902 5901 5900 5899 5896 5894
5879 5877 5874 5873 5872 5871 5869 5868 5869 5869 5869 5869 5871 5872 5873 5875 5876 5877 5878 5880 5879 5881 5883 5886 5887 5889 5890 5891 5892 5893 5896 5898 5898 5899 5899 5899 5898 5897 5896 5894 5893 5892 5891
5869 5865 5863 5861 5861 5860 5859 5858 5857 5858 5858 5860 5861 5862 5863 5866 5866 5869 5870 5870 5871 5873 5873 5877 5878 5880 5880 5880 5882 5884 5888 5890 5890 5892 5893 5893 5892 5892 5891 5889 5888 5887 5887
5859 5855 5851 5849 5848 5847 5846 5845 5845 5845 5844 5847 5849 5851 5853 5855 5856 5858 5860 5861 5863 5864 5867 5869 5869 5870 5871 5871 5873 5876 5879 5881 5883 5884 5885 5885 5885 5886 5886 5886 5885 5883 5882
5842 5840 5838 5835 5833 5831 5830 5831 5830 5831 5831 5833 5835 5837 5839 5843 5846 5849 5851 5854 5856 5860 5862 5863 5863 5862 5862 5864 5864 5867 5870 5872 5875 5877 5877 5878 5878 5880 5880 5880 5880 5879 5878
5828 5824 5821 5819 5817 5816 5813 5811 5814 5816 5815 5818 5819 5822 5826 5831 5834 5836 5840 5841 5845 5849 5852 5861 5855 5855 5856 5857 5858 5860 5862 5865 5867 5869 5870 5872 5873 5874 5874 5875 5875 5874 5873
5815 5811 5807 5803 5799 5797 5797 5795 5795 5796 5798 5801 5805 5806 5812 5816 5820 5824 5829 5833 5834 5838 5842 5848 5848 5847 5849 5848 5850 5854 5857 5858 5860 5862 5864 5866 5866 5867 5868 5870 5869 5870 5869
5800 5795 5791 5786 5781 5776 5774 5775 5775 5777 5779 5783 5788 5792 5799 5801 5807 5811 5817 5821 5825 5827 5826 5833 5840 5840 5840 5840 5842 5846 5850 5850 5852 5854 5856 5859 5860 5861 5862 5864 5864 5864 5863
5785 5779 5773 5766 5760 5756 5752 5752 5754 5756 5761 5766 5772 5776 5783 5787 5794 5798 5803 5808 5810 5814 5817 5819 5824 5829 5829 5831 5833 5837 5842 5841 5843 5846 5848 5851 5853 5855 5856 5856 5856 5857 5857
5767 5760 5753 5747 5740 5736 5734 5732 5733 5736 5742 5749 5756 5760 5767 5772 5778 5783 5789 5795 5797 5802 5804 5805 5808 5815 5819 5822 5824 5826 5831 5832 5837 5840 5841 5843 5846 5848 5849 5850 5850 5850 5851
5750 5741 5735 5729 5723 5717 5711 5710 5713 5718 5726 5734 5741 5746 5751 5758 5763 5768 5775 5780 5782 5787 5787 5791 5796 5805 5810 5812 5810 5814 5821 5824 5829 5830 5833 5834 5838 5839 5840 5841 5843 5843 5843
5735 5727 5720 5713 5705 5697 5695 5695 5699 5704 5711 5720 5726 5732 5737 5742 5748 5755 5759 5764 5767 5772 5776 5781 5790 5794 5798 5800 5799 5804 5809 5815 5820 5823 5826 5828 5829 5830 5832 5834 5835 5836 5837
5723 5714 5707 5699 5693 5689 5688 5688 5690 5695 5701 5707 5713 5718 5726 5731 5736 5742 5745 5750 5755 5758 5763 5769 5775 5779 5785 5786 5788 5792 5798 5805 5809 5814 5817 5820 5820 5822 5824 5826 5827 5828 5828
5715 5706 5696 5692 5689 5686 5685 5684 5686 5689 5693 5698 5703 5708 5715 5721 5727 5731 5734 5737 5741 5745 5748 5756 5759 5768 5771 5775 5778 5782 5789 5795 5800 5803 5807 5810 5811 5811 5814 5816 5817 5818 5819
5706 5699 5691 5688 5684 5682 5681 5679 5680 5682 5685 5689 5694 5699 5705 5712 5715 5718 5722 5727 5731 5732 5735 5740 5746 5751 5756 5761 5766 5772 5778 5786 5791 5793 5796 5800 5801 5802 5804 5805 5806 5807 5808